Location: Newark
(51.3318°N, 0.0053°E)
Time: 16:26:45
(UTC+00:00)

DIWATA 2B (PO-101) - Pass Details

Date: 06 July 2022
Orbit: 583 x 599 km, 98.0° (Epoch: 07 August)

Event Time Altitude Azimuth Distance (km) Brightness Sun altitude
Exits shadow 02:21:35 13° 197° (SSW) 1,749 ? -10.1°
Maximum altitude 02:25:01 38° 263° (W) 929 ? -9.8°
Drops below altitude 10° 02:28:58 10° 331° (NNW) 1,951 ? -9.5°
Sets 02:31:17 0° 340° (NNW) 2,857 ? -9.3°
